Chandler, OK

11:41 AM CDT on August 20, 2017 (GMT -0500)
Chandler Municipal

Weather History for KCQB - November, 2013

Change the Weather History Date:

Wednesday, November 20, 2013

  Actual Average (KCUH) Record (KCUH)
Temperature  
Mean Temperature 56 °F -  
Max Temperature 62 °F 58 °F 81 °F (1949)
Min Temperature 51 °F 36 °F 21 °F (1980)
Degree Days  
Heating Degree Days 8    
Growing Degree Days 6 (Base 50)    
Moisture  
Dew Point 42 °F    
Average Humidity 58    
Maximum Humidity 77    
Minimum Humidity 44    
Precipitation  
Precipitation 0.00 in - - ()
Sea Level Pressure  
Sea Level Pressure 29.92 in    
Wind  
Wind Speed 13 mph (South)    
Max Wind Speed 22 mph    
Max Gust Speed 30 mph    
Visibility 10 miles    
Events Rain    
Averages and records for this station are not official NWS values.
T = Trace of Precipitation, MM = Missing Value Source: NWS Daily Summary

Daily Weather History Graph

Daily Weather History Graph

Search for Another Location

Airport or City:

Trip Planner

Search our weather history database for the weather conditions in past years. The results will help you decide how hot, cold, wet, or windy it might be!

Date:

Astronomy

Nov. 20, 2013 Rise Set
Actual Time 7:08 AM CST 5:17 PM CST
Civil Twilight 6:40 AM CST 5:44 PM CST
Nautical Twilight 6:09 AM CST 6:15 PM CST
Astronomical Twilight 5:39 AM CST 6:46 PM CST
Moon 8:01 PM CST 9:34 AM CST
Length of Visible Light 11h 03m
Length of Day
10h 08m
Waning Gibbous, 91% of the Moon is Illuminated
Nov 20
Waning Gibbous
Nov 25
Last Quarter
Dec 2
New
Dec 9
First Quarter
Dec 17
Full

Hourly Weather History & Observations

Time (CST) Temp. Dew Point Humidity Pressure Visibility Wind Dir Wind Speed Gust Speed Precip Events Conditions
12:15 AM 55.4 °F 33.8 °F 44% 29.99 in 10.0 mi South 10.4 mph 17.3 mph N/A   Scattered Clouds
12:35 AM 53.6 °F 33.8 °F 47% 29.98 in 10.0 mi South 12.7 mph 18.4 mph N/A   Clear
12:55 AM 53.6 °F 33.8 °F 47% 29.97 in 10.0 mi South 13.8 mph 19.6 mph N/A   Clear
1:15 AM 55.4 °F 33.8 °F 44% 29.97 in 10.0 mi South 12.7 mph 20.7 mph N/A   Mostly Cloudy
1:35 AM 53.6 °F 33.8 °F 47% 29.96 in 10.0 mi South 11.5 mph 19.6 mph N/A   Mostly Cloudy
1:55 AM 55.4 °F 33.8 °F 44% 29.96 in 10.0 mi South 15.0 mph 25.3 mph N/A   Overcast
2:15 AM 55.4 °F 33.8 °F 44% 29.96 in 10.0 mi South 15.0 mph 24.2 mph N/A   Overcast
2:35 AM 53.6 °F 33.8 °F 47% 29.95 in 10.0 mi South 16.1 mph 25.3 mph N/A   Mostly Cloudy
2:55 AM 53.6 °F 33.8 °F 47% 29.96 in 10.0 mi South 17.3 mph 21.9 mph N/A   Mostly Cloudy
3:15 AM 53.6 °F 33.8 °F 47% 29.96 in 10.0 mi South 15.0 mph 18.4 mph N/A   Mostly Cloudy
3:35 AM 53.6 °F 33.8 °F 47% 29.94 in 10.0 mi South 15.0 mph 24.2 mph N/A   Mostly Cloudy
3:55 AM 53.6 °F 33.8 °F 47% 29.94 in 10.0 mi South 11.5 mph 20.7 mph N/A   Mostly Cloudy
4:15 AM 53.6 °F 33.8 °F 47% 29.94 in 10.0 mi South 15.0 mph 21.9 mph N/A   Mostly Cloudy
4:35 AM 53.6 °F 33.8 °F 47% 29.93 in 10.0 mi South 16.1 mph 24.2 mph N/A   Mostly Cloudy
4:55 AM 53.6 °F 35.6 °F 51% 29.91 in 10.0 mi South 15.0 mph 20.7 mph N/A   Scattered Clouds
5:15 AM 53.6 °F 35.6 °F 51% 29.92 in 10.0 mi South 13.8 mph 24.2 mph N/A   Scattered Clouds
5:35 AM 51.8 °F 35.6 °F 54% 29.94 in 10.0 mi South 13.8 mph 20.7 mph N/A   Scattered Clouds
5:55 AM 51.8 °F 35.6 °F 54% 29.93 in 10.0 mi South 13.8 mph 20.7 mph N/A   Mostly Cloudy
6:15 AM 53.6 °F 35.6 °F 51% 29.93 in 10.0 mi South 13.8 mph 23.0 mph N/A   Overcast
6:35 AM 51.8 °F 35.6 °F 54% 29.93 in 10.0 mi South 17.3 mph 26.5 mph N/A   Overcast
6:55 AM 51.8 °F 35.6 °F 54% 29.93 in 10.0 mi South 15.0 mph 20.7 mph N/A   Overcast
7:15 AM 51.8 °F 35.6 °F 54% 29.93 in 10.0 mi South 17.3 mph 21.9 mph N/A   Overcast
7:35 AM 51.8 °F 35.6 °F 54% 29.94 in 10.0 mi South 12.7 mph 20.7 mph N/A   Overcast
7:55 AM 51.8 °F 35.6 °F 54% 29.95 in 10.0 mi South 13.8 mph 21.9 mph N/A   Overcast
8:15 AM 51.8 °F 35.6 °F 54% 29.95 in 10.0 mi South 15.0 mph 20.7 mph N/A   Overcast
8:35 AM 51.8 °F 35.6 °F 54% 29.95 in 10.0 mi South 17.3 mph 23.0 mph N/A   Overcast
8:55 AM 51.8 °F 35.6 °F 54% 29.94 in 10.0 mi South 17.3 mph 26.5 mph N/A   Overcast
9:15 AM 53.6 °F 35.6 °F 51% 29.95 in 10.0 mi South 13.8 mph 21.9 mph N/A   Overcast
9:35 AM 53.6 °F 37.4 °F 54% 29.95 in 10.0 mi South 15.0 mph 21.9 mph N/A   Overcast
9:55 AM 53.6 °F 37.4 °F 54% 29.95 in 10.0 mi South 12.7 mph 21.9 mph N/A   Overcast
10:15 AM 53.6 °F 37.4 °F 54% 29.95 in 10.0 mi South 15.0 mph 24.2 mph N/A   Overcast
10:35 AM 53.6 °F 37.4 °F 54% 29.94 in 10.0 mi South 16.1 mph 24.2 mph N/A   Overcast
10:55 AM 55.4 °F 39.2 °F 54% 29.93 in 10.0 mi South 17.3 mph 21.9 mph N/A   Overcast
11:15 AM 57.2 °F 41.0 °F 55% 29.91 in 10.0 mi South 18.4 mph 25.3 mph N/A   Overcast
11:35 AM 59.0 °F 42.8 °F 55% 29.90 in 10.0 mi South 21.9 mph 28.8 mph N/A   Mostly Cloudy
11:55 AM 60.8 °F 42.8 °F 52% 29.89 in 10.0 mi South 18.4 mph 29.9 mph N/A   Mostly Cloudy
12:15 PM 60.8 °F 44.6 °F 55% 29.88 in 10.0 mi South 17.3 mph 26.5 mph N/A   Overcast
12:35 PM 60.8 °F 44.6 °F 55% 29.88 in 10.0 mi South 17.3 mph 26.5 mph N/A   Overcast
12:55 PM 60.8 °F 44.6 °F 55% 29.87 in 10.0 mi South 18.4 mph 25.3 mph N/A   Overcast
1:15 PM 60.8 °F 46.4 °F 59% 29.86 in 10.0 mi South 15.0 mph 21.9 mph N/A   Overcast
1:35 PM 62.6 °F 46.4 °F 55% 29.85 in 10.0 mi South 13.8 mph 21.9 mph N/A   Overcast
1:55 PM 60.8 °F 46.4 °F 59% 29.85 in 10.0 mi South 13.8 mph 19.6 mph N/A   Overcast
2:15 PM 60.8 °F 46.4 °F 59% 29.85 in 10.0 mi SSW 16.1 mph 20.7 mph N/A   Overcast
2:35 PM 60.8 °F 46.4 °F 59% 29.85 in 10.0 mi South 8.1 mph 21.9 mph N/A   Overcast
2:55 PM 60.8 °F 46.4 °F 59% 29.85 in 10.0 mi SSW 11.5 mph 16.1 mph N/A   Overcast
3:15 PM 60.8 °F 46.4 °F 59% 29.85 in 10.0 mi South 13.8 mph 20.7 mph N/A   Overcast
3:35 PM 60.8 °F 46.4 °F 59% 29.87 in 10.0 mi South 11.5 mph - N/A   Overcast
3:55 PM 60.8 °F 46.4 °F 59% 29.88 in 10.0 mi South 6.9 mph 18.4 mph N/A   Overcast
4:15 PM 59.0 °F 44.6 °F 59% 29.88 in 10.0 mi South 5.8 mph - N/A   Overcast
4:35 PM 59.0 °F 44.6 °F 59% 29.88 in 7.0 mi South 6.9 mph - N/A   Overcast
4:55 PM 59.0 °F 44.6 °F 59% 29.88 in 10.0 mi South 8.1 mph - N/A   Overcast
5:15 PM 59.0 °F 46.4 °F 63% 29.88 in 10.0 mi South 5.8 mph - N/A   Overcast
5:35 PM 59.0 °F 46.4 °F 63% 29.88 in 10.0 mi SSE 5.8 mph - N/A   Overcast
5:55 PM 57.2 °F 46.4 °F 67% 29.90 in 7.0 mi SSE 5.8 mph - N/A   Scattered Clouds
6:15 PM 57.2 °F 46.4 °F 67% 29.90 in 10.0 mi SSE 5.8 mph - N/A   Scattered Clouds
6:35 PM 57.2 °F 46.4 °F 67% 29.90 in 10.0 mi SE 4.6 mph - N/A   Scattered Clouds
6:55 PM 55.4 °F 46.4 °F 72% 29.91 in 10.0 mi SSE 5.8 mph - N/A   Scattered Clouds
7:15 PM 55.4 °F 46.4 °F 72% 29.90 in 10.0 mi SSE 6.9 mph - N/A   Scattered Clouds
7:35 PM 57.2 °F 46.4 °F 67% 29.90 in 10.0 mi SE 6.9 mph - N/A   Clear
7:55 PM 57.2 °F 46.4 °F 67% 29.91 in 10.0 mi SSE 5.8 mph - N/A   Scattered Clouds
8:15 PM 59.0 °F 46.4 °F 63% 29.90 in 10.0 mi SSE 6.9 mph - N/A   Scattered Clouds
8:35 PM 59.0 °F 48.2 °F 67% 29.90 in 10.0 mi SSE 8.1 mph - N/A   Scattered Clouds
8:55 PM 59.0 °F 48.2 °F 67% 29.92 in 10.0 mi SSE 6.9 mph - N/A   Mostly Cloudy
9:15 PM 59.0 °F 50.0 °F 72% 29.91 in 10.0 mi South 8.1 mph - N/A   Mostly Cloudy
9:35 PM 59.0 °F 50.0 °F 72% 29.92 in 10.0 mi South 8.1 mph - N/A   Mostly Cloudy
9:55 PM 60.8 °F 51.8 °F 72% 29.92 in 10.0 mi South 10.4 mph - N/A   Overcast
10:15 PM 60.8 °F 51.8 °F 72% 29.92 in 10.0 mi South 11.5 mph 17.3 mph N/A   Overcast
10:35 PM 60.8 °F 51.8 °F 72% 29.93 in 10.0 mi South 9.2 mph 16.1 mph N/A   Overcast
10:55 PM 60.8 °F 51.8 °F 72% 29.93 in 10.0 mi South 9.2 mph - N/A   Mostly Cloudy
11:15 PM 60.8 °F 51.8 °F 72% 29.94 in 10.0 mi South 9.2 mph - N/A Rain Light Rain
11:35 PM 60.8 °F 51.8 °F 72% 29.92 in 10.0 mi SSE 11.5 mph - N/A   Mostly Cloudy
11:55 PM 60.8 °F 53.6 °F 77% 29.94 in 10.0 mi South 9.2 mph - N/A   Scattered Clouds